{"data":{"norad_id":68965,"epoch":"2026-05-25T04:00:03.998880Z","epoch_age_seconds":54448,"freshness":"FRESH","line1":"1 68965U 26099Q   26145.16671295 -.01909639  00000+0 -18239-1 0  9997","line2":"2 68965  53.1590 269.9373 0000755  72.3599 286.3486 15.69084190  5016","mean_motion":15.6908419,"eccentricity":7.55e-5,"inclination_deg":53.159,"raan_deg":269.9373,"arg_perigee_deg":72.3599,"mean_anomaly_deg":286.3486,"bstar":-0.018239,"rev_number":501,"period_min":91.773278271321,"perigee_km":361.0093303088,"apogee_km":362.02701824012,"semimajor_km":6739.6551742745,"source":"CELESTRAK","updated_at":"2026-05-25T13:38:22.074885Z"}}